Weather in Vertiivka

Ukraine / Chernihiv Region     51°09′51″N   31°50′45″E
temp.,
°C
wind,
m/s
gust,
m/s
humid.,
%
clouds,
%
prec.,
mm/h
press.,
hPa
HPBL,
m
11 april, sun
sun1100:00+5s48600 0.0 1026116
03:00+4ssw36670 0.0 102793
06:00+3ssw23700 0.0 102824
09:00+8s23570 0.0 1029225
12:00+12sse33430 0.0 1029982
15:00+14se22370 0.0 10281351
18:00+14ese34430 0.0 1028634
21:00+9e22550 0.0 102815
12 april, mon
mon1200:00+7e33615 0.0 102938
03:00+6ene3467100 0.0 102851
06:00+5ene357293 0.0 102788
09:00+8ene4660100 0.0 1026306
12:00+11ene4559100 0.0 1024663
15:00+10e3478100 0.1 1024452
18:00+10e3586100 0.3 1023309
21:00+10ne3488100 0.3 102276
13 april, tue
tue1300:00+10ne2491100 0.1 102185
03:00+9n359491 0.2 102082
06:00+9ne2493100 0.0 101976
09:00+11e2282100 0.0 1019158
12:00+13ese3378100 0.0 1019338
15:00+17se3464100 0.0 10181181
18:00+15sse3676100 0.3 1017417
21:00+12sse5889100 0.4 1018334
14 april, wed
wed1400:00+10sse499412 0.0 1018269
03:00+9sse3794100 0.0 1018158
06:00+10sse2587100 0.0 1017127
09:00+10se2586100 0.0 1017231
12:00+14sse456295 0.0 1016985
15:00+15sse4656100 0.0 10161342
18:00+14s3560100 0.0 1015206
21:00+12sw1164100 0.0 101611
15 april, thu
thu1500:00+12e1167100 0.0 101511
03:00+11ne2273100 0.0 101541
06:00+10ne41092100 0.8 1014388
09:00+10ene4793100 4.3 1014430
12:00+12nne3485100 0.3 1013294
15:00+12e2380100 1.5 101276
18:00+12ene3680100 0.8 1012322
21:00+10nnw3689100 2.0 1011143